Location: North Runcton
(52.7000°N, 0.4333°E)
Time: 20:08:34
(UTC+00:00)

Okean O Rocket - Pass Details

Date: 19 May 2025
Orbit: 614 x 636 km, 98.0° (Epoch: 21 June)

Event Time Altitude Azimuth Distance (km) Brightness Sun altitude
Rises 21:35:39 0° 208° (SSW) 2,907 4.7 -11.3°
Reaches altitude 10° 21:38:31 10° 228° (SW) 2,001 4.1 -11.5°
Maximum altitude 21:41:25 17° 271° (W) 1,574 4.1 -11.8°
Drops below altitude 10° 21:44:20 10° 313° (NW) 2,004 5.5 -12.0°
Sets 21:47:12 0° 333° (NNW) 2,912 7.1 -12.2°
